[Date Prev][Date Next][Thread Prev][Thread Next] - [Date Index][Thread Index][Author Index]

2 Line ISS Keps 1-7



ISS
1 25544U 98067A   03007.15863095  .00022159  00000-0  28892-3 0  5534
2 25544  51.6345 109.1211 0004923   6.2534  64.4750 15.58618678235921


----
Via the sarex mailing list at AMSAT.ORG courtesy of AMSAT-NA.
To unsubscribe, send "unsubscribe sarex" to Majordomo@amsat.org



AMSAT Top AMSAT Home